Probability
0 0 0 0 0 0 0 0 0 0 0 0 0 0 0 0 0 0 0 3 10 19 32 48 81 87 90 87 84 81 84 77 87 74 65 61 52 45 42 39 32 23 16 13 6 10 6 10 3
0 0 0 0 0 0 0 0 0 0 0 0 0 0 0 0 0 0 0 6 10 23 35 48 84 81 84 84 84 81 77 81 81 77 71 65 61 45 52 48 32 29 16 13 10 10 6 3 0
0 0 0 0 0 0 0 0 0 0 0 0 0 0 0 0 0 0 3 6 19 26 39 45 68 71 71 74 74 74 77 81 74 81 68 68 65 52 52 39 35 32 32 16 13 6 3 3 3
0 0 0 0 0 0 0 0 0 0 0 0 0 0 0 0 0 0 3 16 19 19 29 45 52 55 68 68 65 71 74 71 77 77 74 65 55 52 48 45 42 35 26 16 13 3 3 10 10
0 0 0 0 0 0 0 0 0 0 0 0 0 0 0 0 0 0 13 19 16 16 19 39 45 48 52 58 58 61 65 65 68 65 71 65 65 55 52 45 42 42 32 19 16 10 3 13 13
0 0 0 0 0 0 0 0 0 0 0 0 0 0 0 0 0 3 6 10 13 16 23 26 39 39 42 45 52 55 58 61 61 61 65 68 65 58 48 48 32 35 29 26 19 16 13 10 10
0 0 0 0 0 0 0 0 0 0 0 0 0 0 0 0 0 0 3 3 13 16 16 16 16 23 39 39 42 45 45 48 52 58 58 65 65 65 52 39 32 35 32 29 32 23 19 10 13
0 0 0 0 0 0 0 0 0 0 0 0 0 0 0 0 0 0 0 0 0 0 6 10 13 10 10 10 29 32 35 35 42 39 26 16 16 19 35 16 16 26 26 32 32 32 19 16 10
0 0 0 0 0 0 0 0 0 0 0 0 0 0 0 0 0 0 0 0 0 0 0 0 3 3 3 3 3 10 10 19 19 13 6 3 3 3 3 3 10 13 10 26 26 26 23 6 0
0 0 0 0 0 0 0 0 0 0 0 0 0 0 0 0 0 0 0 0 0 0 0 0 0 0 0 0 0 0 0 0 0 0 0 0 0 0 0 0 0 6 10 6 13 19 13 0 0
0 0 0 0 0 0 0 0 0 0 0 0 0 0 0 0 0 0 0 0 0 0 0 0 0 0 0 0 0 0 0 0 0 0 0 0 0 0 0 0 0 0 0 0 0 0 0 0 0
0 0 0 0 0 0 0 0 0 0 0 0 0 0 0 0 0 0 0 0 0 0 0 0 0 0 0 0 0 0 0 0 0 0 0 0 0 0 0 0 0 0 0 0 0 0 0 0 0
0 0 0 0 0 0 0 0 0 0 0 0 0 0 0 0 0 0 0 0 0 0 0 0 0 0 0 0 0 0 0 0 0 0 0 0 0 0 0 0 0 0 0 0 0 0 0 0 0
0 0 0 0 0 0 0 0 0 0 0 0 0 0 0 0 0 0 0 0 0 0 0 0 0 0 0 0 0 0 0 0 0 0 0 0 0 0 0 0 0 0 0 0 0 0 0 0 0
0 0 0 0 0 0 0 0 0 0 0 0 0 0 0 0 0 0 0 0 0 0 0 0 0 0 0 0 0 0 0 0 0 0 0 0 0 0 0 0 0 0 0 0 0 0 0 0 0
0 0 0 0 0 0 0 0 0 0 0 0 0 0 0 0 0 0 0 0 0 0 0 0 0 0 0 0 0 0 0 0 0 0 0 0 0 0 0 0 0 0 0 0 0 0 0 0 0
0 0 0 0 0 0 0 0 0 0 0 0 0 0 0 0 0 0 0 0 0 0 0 0 0 0 0 0 0 0 0 0 0 0 0 0 0 0 0 0 0 0 0 0 0 0 0 0 0
0 0 0 0 0 0 0 0 0 0 0 0 0 0 0 0 0 0 0 0 0 0 0 0 0 0 0 0 0 0 0 0 0 0 0 0 0 0 0 0 0 0 0 0 0 0 0 0 0
0 0 0 0 0 0 0 0 0 0 0 0 0 0 0 0 0 0 0 0 0 0 0 0 0 0 0 0 0 0 0 0 0 0 0 0 0 0 0 0 0 0 0 0 0 0 0 0 0
0 0 0 0 0 0 0 0 0 0 0 0 0 0 0 0 0 0 0 0 0 0 0 0 0 0 0 0 0 0 0 0 0 0 0 0 0 0 0 0 0 0 0 0 0 0 0 0 0
0 0 0 0 0 0 0 0 0 0 0 0 0 0 0 0 0 0 0 0 0 0 0 0 0 0 0 0 0 0 0 0 0 0 0 0 0 0 0 0 0 0 0 0 0 0 0 0 0
0 0 0 0 0 0 0 0 0 0 0 0 0 0 0 0 0 0 0 0 0 0 0 0 0 0 0 0 0 0 0 0 0 0 0 0 0 0 0 0 0 0 0 0 0 0 0 0 0
0 0 0 0 0 0 0 0 0 0 0 0 0 0 0 0 0 0 0 0 0 0 0 0 0 0 0 0 0 0 0 0 0 0 0 0 0 0 0 0 0 0 0 0 0 0 0 0 0
0 0 0 0 0 0 0 0 0 0 0 0 0 0 0 0 0 0 0 0 0 0 0 0 0 0 0 0 0 0 0 0 0 0 0 0 0 0 0 0 0 0 0 0 0 0 0 0 0
0 0 0 0 0 0 0 0 0 0 0 0 0 0 0 0 0 0 0 0 0 0 0 0 0 0 0 0 0 0 0 0 0 0 0 0 0 0 0 0 0 0 0 0 0 0 0 0 0
0 0 0 0 0 0 0 0 0 0 0 0 0 0 0 0 0 0 0 0 0 0 0 0 0 0 0 0 0 0 0 0 0 0 0 0 0 0 0 0 0 0 0 0 0 0 0 0 0
0 0 0 0 0 0 0 0 0 0 0 0 0 0 0 0 0 0 0 0 0 0 0 0 0 0 0 0 0 0 0 0 0 0 0 0 0 0 0 0 0 0 0 0 0 0 0 0 0
0 0 0 0 0 0 0 0 0 0 0 0 0 0 0 0 0 0 0 0 0 0 0 0 0 0 0 0 0 0 0 0 0 0 0 0 0 0 0 0 0 0 0 0 0 0 0 0 0
0 0 0 0 0 0 0 0 0 0 0 0 0 0 0 0 0 0 0 0 0 0 0 0 0 0 0 0 0 0 0 0 0 0 0 0 0 0 0 0 0 0 0 0 0 0 0 0 0
0 0 0 0 0 0 0 0 0 0 0 0 0 0 0 0 0 0 0 0 0 0 0 0 0 0 0 0 0 0 0 0 0 0 0 0 0 0 0 0 0 0 0 0 0 0 0 0 0
Height
5776 5781 5785 5790 5795 5800 5805 5811 5815 5820 5824 5827 5830 5832 5835 5839 5842 5846 5847 5848 5850 5851 5853 5854 5856 5857 5858 5859 5861 5862 5863 5864 5864 5865 5866 5867 5868 5868 5869 5870 5870 5871 5871 5872 5872 5872 5873 5873 5873
5768 5773 5778 5782 5788 5794 5801 5806 5810 5815 5818 5822 5825 5828 5831 5834 5837 5840 5842 5844 5846 5848 5850 5851 5853 5854 5855 5856 5858 5859 5860 5861 5862 5863 5864 5864 5865 5866 5867 5867 5868 5868 5869 5869 5870 5870 5871 5871 5871
5760 5765 5771 5776 5782 5789 5795 5800 5805 5809 5813 5817 5820 5823 5826 5829 5832 5835 5838 5840 5843 5844 5846 5848 5849 5851 5852 5853 5854 5856 5857 5858 5859 5860 5861 5862 5862 5863 5864 5864 5865 5866 5867 5867 5868 5868 5868 5869 5869
5752 5758 5764 5770 5777 5784 5789 5794 5799 5803 5807 5812 5815 5819 5822 5825 5828 5830 5833 5836 5838 5840 5842 5844 5845 5847 5848 5849 5851 5852 5853 5855 5856 5857 5858 5858 5859 5860 5861 5862 5862 5863 5864 5864 5865 5865 5866 5866 5866
5745 5751 5757 5764 5772 5778 5783 5788 5793 5798 5802 5806 5810 5814 5817 5820 5822 5825 5828 5831 5833 5836 5838 5839 5841 5843 5844 5846 5847 5848 5850 5851 5852 5853 5854 5855 5856 5857 5858 5858 5859 5860 5861 5861 5862 5862 5862 5863 5863
5739 5745 5752 5759 5767 5773 5778 5783 5787 5792 5797 5801 5805 5809 5812 5815 5817 5820 5823 5826 5828 5831 5833 5835 5836 5838 5840 5841 5843 5844 5846 5847 5848 5849 5850 5851 5852 5853 5854 5855 5855 5856 5857 5858 5858 5859 5859 5859 5859
5734 5741 5748 5755 5761 5767 5773 5777 5782 5787 5792 5796 5800 5804 5807 5810 5812 5815 5818 5820 5823 5825 5827 5829 5831 5833 5835 5836 5838 5840 5841 5842 5844 5845 5846 5847 5848 5849 5850 5850 5851 5852 5853 5854 5854 5855 5855 5855 5856
5728 5736 5742 5749 5756 5762 5767 5772 5777 5781 5786 5790 5794 5798 5802 5805 5807 5809 5812 5815 5817 5820 5822 5824 5826 5828 5829 5831 5833 5834 5836 5837 5839 5840 5841 5842 5843 5844 5845 5846 5847 5848 5848 5849 5850 5850 5851 5851 5852
5724 5732 5738 5744 5751 5757 5762 5767 5772 5776 5781 5785 5789 5792 5796 5799 5801 5804 5807 5809 5812 5814 5816 5818 5820 5822 5824 5825 5827 5829 5830 5832 5833 5834 5835 5837 5838 5839 5840 5841 5842 5842 5843 5844 5845 5845 5846 5846 5847
5719 5727 5734 5740 5746 5751 5757 5762 5767 5771 5775 5779 5783 5786 5789 5793 5796 5798 5801 5804 5806 5808 5810 5812 5814 5816 5817 5819 5821 5822 5824 5825 5826 5828 5829 5830 5832 5833 5834 5835 5836 5836 5837 5838 5839 5840 5840 5841 5841
5715 5723 5729 5735 5740 5746 5751 5756 5761 5765 5770 5774 5777 5780 5784 5787 5790 5792 5795 5797 5799 5801 5803 5805 5807 5809 5811 5812 5814 5815 5817 5818 5820 5821 5822 5823 5825 5826 5827 5828 5829 5830 5831 5832 5833 5834 5834 5835 5835
5712 5719 5725 5730 5735 5741 5746 5751 5755 5760 5764 5768 5771 5774 5777 5780 5783 5786 5788 5790 5793 5795 5797 5799 5800 5802 5804 5805 5807 5808 5810 5811 5812 5813 5814 5816 5817 5819 5820 5821 5822 5823 5824 5825 5826 5827 5828 5828 5829
5709 5715 5721 5726 5731 5735 5740 5745 5750 5754 5758 5761 5765 5768 5771 5774 5776 5779 5781 5784 5786 5788 5790 5792 5793 5795 5797 5798 5800 5801 5802 5803 5804 5806 5807 5808 5809 5811 5812 5813 5814 5815 5816 5817 5818 5819 5820 5821 5822
5707 5712 5717 5721 5726 5731 5735 5740 5744 5748 5752 5756 5759 5762 5764 5767 5769 5772 5774 5777 5779 5780 5782 5784 5786 5787 5789 5790 5792 5793 5794 5795 5796 5798 5799 5800 5801 5802 5804 5805 5806 5807 5808 5809 5811 5811 5812 5813 5814
5703 5709 5713 5718 5722 5727 5731 5735 5739 5743 5746 5750 5753 5756 5758 5760 5763 5765 5767 5769 5771 5773 5774 5776 5778 5779 5781 5782 5784 5785 5786 5787 5788 5789 5790 5791 5792 5794 5795 5796 5798 5799 5800 5801 5802 5803 5804 5805 5806
5701 5705 5710 5715 5718 5722 5728 5731 5734 5737 5741 5744 5747 5749 5752 5754 5756 5758 5760 5762 5764 5765 5767 5768 5769 5771 5772 5773 5775 5776 5777 5778 5779 5780 5781 5782 5783 5784 5786 5787 5789 5790 5791 5792 5793 5794 5795 5796 5797
5699 5703 5707 5711 5715 5718 5722 5726 5729 5732 5735 5738 5741 5743 5745 5748 5749 5751 5753 5755 5756 5758 5759 5760 5761 5762 5763 5764 5765 5766 5768 5769 5770 5771 5772 5772 5773 5775 5776 5778 5779 5780 5781 5783 5784 5785 5786 5787 5788
5698 5701 5705 5708 5711 5714 5718 5721 5724 5726 5729 5732 5734 5737 5739 5741 5742 5744 5745 5747 5748 5749 5750 5751 5752 5753 5753 5754 5755 5756 5757 5759 5760 5761 5762 5762 5763 5765 5766 5767 5769 5770 5771 5773 5774 5775 5776 5777 5778
5697 5699 5702 5705 5708 5711 5714 5717 5719 5721 5724 5726 5729 5731 5733 5734 5735 5737 5738 5739 5740 5741 5741 5742 5743 5743 5743 5744 5745 5746 5747 5747 5748 5749 5751 5752 5753 5754 5755 5756 5758 5759 5761 5762 5763 5764 5765 5767 5767
5695 5698 5700 5703 5705 5708 5710 5713 5715 5717 5719 5721 5723 5725 5726 5728 5729 5729 5730 5731 5732 5732 5733 5733 5733 5733 5733 5734 5734 5735 5735 5736 5737 5737 5739 5740 5741 5742 5743 5744 5746 5747 5749 5751 5752 5753 5754 5756 5756
5695 5697 5699 5701 5702 5704 5707 5709 5711 5712 5714 5716 5717 5718 5720 5721 5722 5722 5723 5723 5724 5724 5724 5724 5723 5723 5723 5723 5723 5724 5724 5724 5725 5726 5726 5727 5728 5729 5731 5732 5733 5734 5736 5738 5740 5741 5743 5744 5745
5694 5695 5697 5699 5700 5702 5704 5705 5708 5708 5709 5710 5712 5713 5714 5714 5715 5715 5716 5716 5716 5715 5715 5715 5714 5714 5713 5713 5713 5713 5713 5714 5714 5714 5714 5715 5716 5717 5718 5720 5721 5723 5724 5726 5728 5729 5731 5732 5733
5693 5694 5696 5697 5698 5699 5700 5701 5704 5704 5705 5706 5706 5707 5707 5708 5709 5709 5709 5709 5708 5708 5707 5706 5705 5704 5703 5703 5703 5703 5703 5703 5703 5703 5704 5704 5704 5705 5707 5708 5709 5711 5712 5714 5715 5717 5719 5720 5721
5693 5694 5694 5695 5696 5697 5697 5698 5700 5700 5701 5701 5702 5702 5702 5702 5702 5702 5702 5702 5701 5700 5699 5698 5697 5695 5694 5694 5693 5693 5693 5693 5694 5694 5694 5694 5694 5695 5696 5697 5698 5699 5700 5702 5703 5705 5707 5708 5709
5692 5693 5694 5693 5694 5695 5695 5694 5697 5696 5696 5696 5697 5697 5697 5696 5696 5696 5695 5695 5694 5693 5692 5690 5689 5688 5686 5685 5685 5684 5684 5684 5685 5685 5685 5685 5685 5685 5686 5686 5687 5688 5689 5690 5691 5693 5694 5696 5697
5692 5692 5693 5692 5692 5692 5692 5691 5694 5693 5692 5691 5692 5692 5691 5691 5690 5689 5689 5688 5687 5686 5684 5683 5682 5680 5679 5678 5677 5676 5676 5676 5676 5676 5676 5676 5676 5676 5676 5677 5677 5678 5678 5679 5680 5681 5682 5684 5686
5691 5691 5691 5691 5690 5689 5689 5689 5690 5689 5688 5687 5687 5687 5686 5686 5685 5684 5682 5681 5680 5679 5678 5676 5675 5674 5672 5671 5670 5668 5668 5668 5668 5668 5668 5668 5668 5668 5668 5668 5668 5669 5669 5669 5670 5671 5672 5673 5674
5691 5690 5690 5688 5687 5686 5687 5686 5686 5684 5684 5683 5683 5682 5682 5681 5679 5678 5677 5675 5674 5673 5671 5670 5668 5667 5666 5665 5663 5662 5661 5661 5660 5660 5660 5659 5660 5660 5660 5660 5660 5660 5660 5660 5661 5661 5662 5663 5664
5690 5689 5687 5686 5685 5684 5683 5685 5682 5681 5680 5680 5679 5678 5677 5676 5674 5673 5671 5670 5668 5667 5665 5664 5662 5661 5660 5658 5657 5656 5655 5654 5653 5653 5652 5652 5652 5652 5652 5652 5652 5652 5652 5652 5652 5652 5653 5654 5654
5688 5687 5686 5685 5684 5681 5680 5683 5679 5677 5676 5676 5675 5674 5673 5672 5670 5668 5667 5665 5663 5661 5660 5658 5657 5655 5654 5653 5651 5650 5649 5648 5647 5646 5646 5645 5645 5645 5645 5644 5644 5644 5644 5644 5644 5644 5645 5645 5645
Wind_Speed
43 43 43 42 42 42 39 36 34 32 31 29 29 28 27 26 25 24 22 20 19 19 18 18 17 17 17 17 16 15 14 14 13 13 12 12 11 11 11 11 11 11 10 10 9 9 9 9 9
44 43 44 44 43 42 40 37 36 34 33 31 31 30 29 28 27 25 24 22 21 21 20 20 19 19 18 18 18 17 17 16 15 15 14 13 13 13 13 13 13 13 12 12 11 11 11 10 10
44 44 44 45 44 41 39 38 37 35 34 33 32 31 31 30 29 28 26 25 24 23 23 22 21 21 20 20 19 18 18 17 17 17 16 16 15 15 14 14 14 14 14 14 13 13 13 13 12
44 45 45 45 43 41 40 39 37 36 36 34 33 33 32 31 31 30 29 27 27 26 25 25 24 23 22 22 21 21 20 19 19 19 18 18 18 17 17 16 15 15 15 14 15 15 15 15 15
44 45 45 44 43 41 40 39 38 37 36 35 34 34 33 32 32 31 30 30 29 28 28 27 27 26 25 24 23 22 22 21 21 20 20 20 20 19 19 18 18 17 17 16 16 16 16 16 17
44 45 44 43 43 41 40 39 38 37 36 35 34 34 33 33 33 32 31 30 30 30 30 29 29 28 27 27 26 25 24 23 23 22 22 21 21 21 21 21 20 20 19 19 18 18 18 18 18
44 44 43 42 42 41 40 39 38 37 36 35 34 34 33 33 33 32 32 31 31 31 30 30 30 30 30 29 28 27 27 26 25 25 24 23 23 23 22 22 22 22 21 21 21 21 20 20 20
43 43 42 42 42 41 40 39 38 37 36 35 34 34 34 33 33 33 32 32 31 31 31 31 31 31 31 31 30 30 29 28 28 27 27 26 25 25 25 24 24 24 24 23 23 23 23 23 23
42 42 42 41 41 41 40 39 38 37 36 35 35 35 35 35 34 34 34 33 32 32 32 32 32 32 32 32 32 31 31 30 30 30 30 29 28 28 28 27 27 26 26 26 25 25 25 25 25
41 41 40 40 41 41 40 39 38 37 36 36 35 35 35 35 35 35 35 34 34 33 33 33 33 33 33 33 33 33 32 32 32 32 32 32 32 31 31 30 30 30 29 29 28 28 27 27 27
40 39 38 39 39 40 40 39 38 38 37 36 36 36 36 36 36 35 35 35 35 35 34 34 34 34 34 34 34 34 34 34 34 35 35 34 34 34 33 33 33 33 32 32 31 31 30 30 29
38 38 37 37 38 38 39 39 38 38 38 37 36 36 36 37 36 36 36 36 36 36 36 36 36 36 36 36 36 36 36 36 36 36 36 37 36 36 36 36 35 35 35 34 34 34 33 33 32
35 35 36 36 36 37 38 39 39 38 38 37 37 37 37 37 37 37 37 37 37 37 37 37 37 37 37 37 37 37 37 37 37 37 38 38 37 37 37 37 37 36 36 36 36 36 36 35 34
33 33 34 35 35 36 36 38 38 38 37 37 37 37 37 37 37 38 37 37 38 38 38 38 38 38 38 39 39 38 38 38 38 38 39 39 39 39 39 39 38 38 38 38 38 38 38 37 37
29 31 32 33 34 34 35 36 37 38 37 37 37 37 37 37 37 37 37 37 38 38 38 39 39 39 40 39 39 39 39 39 39 39 40 40 41 41 41 40 40 40 39 39 39 39 40 39 39
26 29 30 31 32 32 33 34 36 37 37 37 37 37 36 36 37 37 37 38 38 39 39 40 40 40 41 41 41 41 41 41 42 42 42 42 41 42 42 42 42 42 41 41 41 41 41 41 40
24 26 29 30 31 31 32 32 33 35 36 36 37 37 37 37 38 38 38 38 39 40 40 40 41 42 43 43 44 44 44 43 43 44 44 44 43 43 43 43 43 44 44 43 43 43 43 42 42
22 23 25 28 29 30 30 30 31 33 34 35 36 36 37 37 38 39 39 39 40 40 41 41 42 43 43 44 45 46 46 46 46 46 46 46 46 46 45 45 45 45 45 45 45 45 45 44 44
19 20 22 24 27 28 29 29 30 31 32 33 35 36 36 37 37 38 39 39 40 41 41 42 43 43 44 45 46 47 47 48 48 48 48 48 48 48 48 48 49 48 48 48 47 47 46 46 46
17 18 19 21 23 25 27 28 28 29 30 31 33 34 35 36 36 37 38 39 39 40 41 42 43 44 46 46 46 45 46 47 48 49 49 49 50 50 51 51 51 51 50 50 49 50 49 47 47
15 16 18 18 20 22 24 25 26 27 28 30 31 32 33 34 35 36 36 37 38 39 40 41 42 43 44 44 45 45 45 46 47 47 48 49 50 50 51 51 51 51 52 51 51 51 51 49 49
12 14 15 17 18 20 22 23 24 25 27 28 29 30 31 32 32 32 33 34 35 37 38 39 40 41 41 43 43 44 43 44 45 46 47 47 48 49 49 49 50 51 52 52 52 51 51 51 51
11 12 13 15 17 18 19 22 22 23 24 25 26 27 28 29 30 30 31 32 34 35 36 36 37 38 40 40 41 41 42 42 42 43 44 45 46 47 47 48 49 49 50 51 51 52 51 50 50
10 10 12 13 15 16 17 19 18 20 22 23 24 24 25 27 28 29 31 32 32 33 34 35 36 36 37 37 38 39 39 40 41 41 42 43 44 45 46 46 47 47 48 49 50 51 51 50 51
8 10 11 12 13 14 15 17 16 18 19 21 22 23 24 25 27 29 29 30 31 31 32 33 32 32 33 34 34 35 37 38 38 39 39 40 41 42 43 44 44 44 45 46 47 49 50 50 50
6 9 10 12 12 13 14 15 15 17 19 20 21 22 23 25 26 27 28 28 29 30 30 29 29 29 30 31 32 33 34 35 36 36 37 37 37 38 39 40 40 40 40 41 44 46 47 47 48
6 8 9 11 12 13 14 14 15 16 18 18 19 19 20 21 23 24 25 26 27 27 27 28 28 28 29 29 30 30 31 32 33 34 35 35 35 36 37 36 37 38 39 40 40 41 43 45 45
7 8 9 11 12 12 12 13 14 15 16 17 17 18 19 20 21 22 23 24 24 25 25 26 27 28 28 28 28 28 28 29 30 30 31 32 33 34 34 34 36 36 37 37 38 40 41 42 43
8 8 9 10 11 12 11 11 13 14 14 15 16 17 18 19 20 20 21 22 22 22 23 23 23 24 24 25 25 26 26 27 27 27 28 29 30 31 32 33 34 35 35 36 37 37 38 39 40
8 9 10 11 12 13 13 12 12 13 14 14 15 16 17 18 18 18 19 19 20 21 21 21 21 21 22 23 23 24 24 24 24 24 26 28 29 30 31 32 32 33 33 33 33 34 35 36 37
Wind_Direction
227 227 227 227 227 228 229 229 229 230 231 232 234 235 236 238 239 241 241 241 242 243 245 247 249 252 254 254 255 256 258 258 259 260 262 265 267 268 269 269 268 268 267 267 269 270 273 277 280
226 226 225 226 227 228 229 229 230 231 232 233 234 236 237 239 240 241 242 242 243 244 246 248 249 251 254 255 255 256 257 259 260 260 261 263 265 267 269 270 270 269 268 267 267 269 269 271 275
225 225 225 226 227 228 228 229 231 231 232 233 235 236 238 240 241 242 242 243 244 245 246 248 249 251 253 254 255 256 257 259 260 260 261 262 263 265 267 269 270 270 270 268 267 267 268 269 271
224 224 225 225 226 227 229 229 231 232 233 234 236 237 239 241 242 243 244 245 246 246 247 249 250 251 252 253 255 256 257 258 260 260 261 261 262 264 265 268 269 270 270 269 268 267 267 268 269
223 224 225 225 225 226 228 230 231 232 233 234 236 238 240 241 243 245 245 246 246 247 248 249 250 251 252 253 255 256 257 258 259 260 261 262 262 264 265 266 268 269 270 270 268 268 267 268 268
223 223 225 225 225 226 228 230 231 232 233 235 236 238 240 242 244 245 246 247 247 248 248 249 250 252 253 255 255 256 257 258 259 261 261 262 262 264 265 266 267 267 269 270 269 269 269 268 267
222 223 224 225 225 225 228 229 231 233 234 235 236 238 240 242 244 245 246 247 248 248 249 250 251 252 254 255 256 257 258 258 259 260 261 262 262 263 264 266 267 267 267 268 268 269 270 269 268
220 222 223 224 225 225 227 229 232 233 234 235 236 238 239 241 243 245 246 248 248 249 250 251 252 253 254 255 256 257 258 259 260 260 261 262 262 263 263 265 266 266 266 267 267 268 269 270 269
218 221 222 223 224 225 227 229 231 233 235 236 237 239 241 241 243 244 246 248 249 250 251 252 252 253 254 255 256 257 257 258 259 259 260 261 261 261 262 263 264 265 266 266 267 267 268 269 269
216 220 222 223 225 226 227 229 231 234 235 237 239 240 241 242 243 245 247 248 250 251 251 252 252 253 254 255 256 257 257 258 258 259 259 260 261 261 261 262 263 263 264 265 266 267 267 268 268
216 219 221 223 225 227 227 229 232 234 236 237 239 241 243 244 245 246 247 249 250 251 251 252 253 254 255 256 256 257 258 258 258 258 259 260 260 260 261 261 262 263 264 264 265 265 266 266 266
216 218 220 224 226 228 228 230 232 234 236 238 239 241 243 244 246 247 248 249 250 251 251 252 253 254 255 256 257 257 258 258 259 259 259 259 260 260 261 261 261 262 263 263 264 265 265 266 266
215 218 221 224 227 229 230 230 232 235 236 238 240 241 243 245 247 248 249 250 251 252 253 253 254 255 256 257 258 259 259 259 260 260 260 260 260 260 260 261 261 262 262 263 263 263 264 265 266
215 219 222 224 227 229 231 232 233 235 237 239 241 242 244 246 247 248 250 250 252 253 254 255 255 256 257 258 259 259 260 260 260 261 261 260 260 260 261 261 261 261 262 262 262 263 264 265 266
217 219 222 225 228 230 232 233 234 235 237 239 241 243 245 247 248 249 250 251 253 254 255 255 256 257 258 258 258 259 260 261 261 261 262 261 260 260 260 260 261 261 262 262 262 263 264 264 265
219 221 224 226 228 230 233 234 236 237 239 240 242 244 245 247 249 250 251 252 254 255 257 258 258 258 258 258 258 259 260 260 261 261 262 261 261 261 261 261 260 260 261 261 262 263 263 264 265
218 223 226 228 230 231 233 235 238 239 240 241 243 245 247 249 251 252 253 254 256 257 258 259 259 259 259 259 260 260 260 260 261 261 261 262 262 262 262 262 261 260 261 261 262 263 263 264 265
222 225 228 230 231 232 234 236 239 240 241 243 245 248 250 251 253 254 255 256 258 259 259 260 260 260 260 260 260 260 260 260 260 261 261 261 262 262 262 262 261 261 261 261 262 263 263 263 265
223 224 228 232 232 233 235 238 241 243 245 246 248 250 252 254 256 257 258 259 260 260 261 261 261 261 261 261 261 261 262 262 261 261 262 261 262 262 262 262 262 261 260 261 262 262 263 263 264
221 225 229 232 234 235 238 241 243 245 247 249 250 252 253 255 257 259 260 261 261 261 262 262 263 263 263 263 263 263 263 262 262 262 262 262 262 262 262 262 262 261 260 260 261 261 263 264 264
224 227 231 236 238 239 242 244 246 250 251 252 253 254 256 259 260 261 262 263 263 263 264 265 265 265 265 264 264 265 265 264 263 262 262 262 262 261 261 261 261 261 261 260 260 261 262 264 265
225 230 235 240 244 247 247 249 249 252 254 256 257 259 260 261 261 262 263 264 265 266 266 266 267 266 266 266 266 266 265 265 264 263 263 263 262 261 260 261 261 261 261 260 260 260 261 262 263
233 236 240 245 250 253 252 253 251 254 257 259 261 261 261 261 262 264 265 266 268 268 269 269 270 269 268 267 266 266 266 266 265 265 264 263 263 262 261 262 262 262 262 260 259 260 261 262 263
243 249 251 253 257 256 256 258 255 257 259 260 261 262 263 264 265 266 268 270 271 271 271 271 271 271 269 268 267 267 267 266 266 266 266 265 264 262 262 263 264 263 263 261 259 259 259 261 262
254 257 261 262 263 264 263 263 263 262 263 264 264 264 266 267 269 270 271 272 272 273 273 273 272 271 270 269 269 269 268 267 267 267 268 267 265 265 265 264 264 264 263 262 259 259 259 259 261
264 262 266 270 269 268 270 269 269 267 267 267 267 268 270 270 271 272 272 272 273 274 274 272 272 272 272 272 271 270 269 268 267 267 268 268 267 266 266 266 264 264 264 263 261 259 259 259 261
281 278 279 278 275 275 274 274 271 271 271 270 270 271 272 273 274 274 274 273 274 274 274 272 273 273 273 273 273 272 270 269 269 269 269 269 268 267 267 266 265 266 266 265 262 261 260 261 262
294 293 291 291 290 286 281 279 277 275 273 272 272 274 275 278 278 276 276 275 274 273 274 275 275 274 275 275 275 274 272 271 272 272 271 270 269 268 267 266 266 267 267 266 263 263 263 262 263
301 298 298 299 299 298 294 288 286 281 278 275 274 276 278 280 280 279 280 278 275 276 276 277 278 278 277 278 278 276 275 274 274 273 271 271 271 270 268 269 268 268 268 267 267 265 265 264 264
309 303 299 300 303 305 304 299 291 285 281 278 278 280 282 282 283 284 284 282 280 280 280 280 281 280 280 280 279 277 277 277 276 275 274 273 273 271 271 271 270 269 267 266 266 267 267 267 268